CW0506 Weather Reports


Display with metric or nautical units.
time (UTC)temp
F
wind
direction
speed
MPH
gust
MPH
rain 1hr
in
rain 24hr
in
rain mn
in
humidity
%
barometer
mb
20260902040002 62 115 0.0 0.0 0.00 0.89 0.89 99 1017.7
20260902035456 61 115 0.0 0.0 0.00 0.89 0.89 99 1018.0
20260902034951 61 115 0.0 0.0 0.00 0.89 0.89 99 1017.9
20260902034445 61 115 0.0 1.0 0.00 0.89 0.89 99 1018.0
20260902033944 61 214 0.0 1.0 0.00 0.89 0.89 99 1018.0
20260902033438 61 189 0.0 1.0 0.00 0.89 0.89 99 1018.0
20260902032937 61 39 0.0 0.0 0.00 0.89 0.89 99 1018.2
20260902032432 61 9 0.0 3.0 0.00 0.89 0.89 99 1018.3
20260902031927 61 42 2.0 3.0 0.00 0.89 0.89 99 1017.9
20260902031422 61 235 0.0 2.0 0.00 0.89 0.89 99 1017.5
20260902030918 61 177 2.0 2.0 0.00 0.89 0.89 99 1017.3
20260902030413 61 115 0.0 2.0 0.00 0.89 0.89 99 1017.2
20260902025912 61 126 1.0 5.0 0.00 0.89 0.89 99 1017.2
20260902025407 61 93 0.0 2.0 0.00 0.89 0.89 99 1016.9
20260902024902 61 66 0.0 3.0 0.00 0.89 0.89 99 1017.1
20260902024357 61 224 0.0 2.0 0.00 0.89 0.89 99 1017.2
20260902023853 61 181 1.0 3.0 0.00 0.89 0.89 99 1017.2
20260902023348 61 39 1.0 2.0 0.00 0.89 0.89 99 1017.2
20260902022847 61 222 0.0 1.0 0.00 0.89 0.89 99 1017.3
20260902022342 61 107 1.0 3.0 0.00 0.89 0.89 99 1017.1
20260902021838 61 111 0.0 2.0 0.00 0.89 0.89 99 1017.4
20260902021333 61 175 0.0 1.0 0.00 0.89 0.89 99 1017.4
20260902020828 61 161 1.0 2.0 0.00 0.89 0.89 99 1017.3
20260902020325 61 175 0.0 1.0 0.00 0.89 0.89 99 1017.4
20260902015820 61 73 0.0 3.0 0.00 0.89 0.89 99 1017.4
20260902015316 61 162 0.0 1.0 0.00 0.89 0.89 99 1017.2
20260902014811 61 175 0.0 1.0 0.00 0.89 0.89 99 1017.3
20260902014308 61 92 0.0 0.0 0.00 0.89 0.89 99 1017.3
20260902013807 61 101 0.0 1.0 0.00 0.89 0.89 99 1017.2
20260902013302 61 122 0.0 2.0 0.00 0.89 0.89 99 1017.1
20260902012757 61 78 0.0 3.0 0.00 0.89 0.89 99 1017.2
20260902012253 61 305 0.0 1.0 0.00 0.89 0.89 99 1017.3
20260902011749 61 217 0.0 3.0 0.00 0.89 0.89 99 1017.0
20260902011248 61 83 0.0 2.0 0.00 0.89 0.89 99 1017.0
20260902010742 61 114 0.0 2.0 0.00 0.89 0.89 99 1017.1
20260902010238 61 31 1.0 4.0 0.00 0.89 0.89 99 1017.0
20260902005736 61 139 1.0 3.0 0.00 0.89 0.89 99 1016.7
20260902005232 61 87 0.0 3.0 0.00 0.89 0.89 99 1016.8
20260902004731 61 102 0.0 1.0 0.00 0.89 0.89 99 1016.6
20260902004227 61 125 0.0 1.0 0.00 0.89 0.89 99 1016.6
20260902003721 61 126 1.0 1.0 0.00 0.89 0.89 99 1016.8
20260902003217 61 96 1.0 3.0 0.00 0.89 0.89 99 1016.8
20260902002713 61 129 0.0 1.0 0.00 0.89 0.89 99 1016.7
20260902002212 61 229 0.0 0.0 0.00 0.89 0.89 99 1016.7
20260902001708 61 39 0.0 2.0 0.00 0.89 0.89 99 1016.6
20260902001208 61 49 0.0 3.0 0.00 0.89 0.89 99 1016.4
20260902000703 61 9 0.0 2.0 0.00 0.89 0.89 99 1016.2
20260902000158 61 81 0.0 2.0 0.00 0.89 0.89 99 1016.1
20260901235657 61 166 0.0 1.0 0.02 0.89 0.89 99 1016.1
20260901235152 61 61 0.0 1.0 0.00 0.89 0.89 99 1016.2
20260901234652 61 155 0.0 1.0 0.00 0.89 0.89 99 1016.3
20260901234147 61 103 3.0 4.0 0.00 0.89 0.89 99 1016.6
20260901233641 61 212 0.0 1.0 0.00 0.89 0.89 99 1016.5
20260901233138 61 111 0.0 3.0 0.00 0.89 0.89 99 1016.7
20260901232632 61 69 1.0 1.0 0.00 0.89 0.89 99 1016.5
20260901232127 61 39 0.0 3.0 0.00 0.89 0.89 99 1016.7
20260901231624 61 173 0.0 3.0 0.00 0.89 0.89 99 1016.5
20260901231120 61 151 0.0 4.0 0.02 0.89 0.89 99 1016.6
20260901230615 61 147 1.0 2.0 0.00 0.89 0.89 99 1016.5
20260901230109 61 105 1.0 2.0 0.00 0.89 0.89 99 1016.2
20260901225605 62 85 2.0 3.0 0.00 0.89 0.89 99 1016.2
20260901225104 62 102 1.0 3.0 0.00 0.89 0.89 99 1016.0
20260901224601 62 241 2.0 3.0 0.00 0.89 0.89 99 1016.2
20260901224056 62 179 2.0 5.0 0.02 0.89 0.89 99 1016.2
20260901223552 62 126 0.0 5.0 0.02 0.89 0.89 99 1016.0
20260901223047 62 1 1.0 4.0 0.00 0.88 0.88 99 1016.1
20260901222543 62 286 0.0 3.0 0.00 0.88 0.88 99 1016.0
20260901222039 62 23 0.0 3.0 0.02 0.88 0.88 99 1016.3
20260901221535 62 176 0.0 2.0 0.02 0.88 0.88 99 1016.2
20260901221030 62 62 0.0 4.0 0.00 0.88 0.88 99 1016.1
20260901220530 63 75 2.0 3.0 0.02 0.88 0.88 99 1016.0
20260901220028 62 106 2.0 4.0 0.02 0.88 0.88 99 1015.9
20260901215526 63 240 0.0 7.0 0.02 0.87 0.87 99 1015.8
20260901215021 63 107 3.0 5.0 0.02 0.87 0.87 99 1015.8
20260901214520 63 253 4.0 5.0 0.02 0.87 0.87 99 1016.0
20260901214019 63 229 0.0 7.0 0.02 0.87 0.87 99 1015.7
20260901213514 63 61 2.0 4.0 0.00 0.87 0.87 99 1015.6
20260901213008 63 87 4.0 5.0 0.02 0.87 0.87 99 1015.8
20260901212503 63 14 1.0 5.0 0.02 0.87 0.87 99 1015.7
20260901212000 63 136 2.0 5.0 0.00 0.86 0.86 99 1015.6
20260901211455 63 336 2.0 4.0 0.02 0.86 0.86 99 1015.6
20260901210950 63 83 3.0 5.0 0.02 0.86 0.86 99 1015.4
20260901210440 64 162 0.0 2.0 0.00 0.86 0.86 99 1015.5
20260901205937 64 42 1.0 6.0 0.02 0.86 0.86 99 1015.6
20260901205437 64 95 3.0 6.0 0.05 0.86 0.86 99 1015.2
20260901204931 64 238 1.0 6.0 0.05 0.85 0.85 99 1015.1
20260901204428 64 69 1.0 5.0 0.09 0.85 0.85 99 1015.0
20260901203927 64 33 0.0 4.0 0.07 0.84 0.84 99 1014.9
20260901203423 64 63 3.0 3.0 0.07 0.83 0.83 99 1015.1
20260901202918 65 201 3.0 5.0 0.02 0.83 0.83 99 1015.0
20260901202412 65 88 1.0 5.0 0.02 0.82 0.82 99 1014.9
20260901201908 65 94 1.0 3.0 0.02 0.82 0.82 99 1015.0
20260901201402 65 30 3.0 5.0 0.05 0.82 0.82 99 1014.7
20260901200856 66 63 1.0 5.0 0.07 0.81 0.81 99 1014.6
20260901200351 65 109 0.0 4.0 0.05 0.81 0.81 99 1014.6
20260901195850 66 100 3.0 5.0 0.07 0.80 0.80 99 1014.3
20260901195343 66 38 3.0 5.0 0.09 0.80 0.80 99 1014.3
20260901194838 67 192 3.0 8.0 0.07 0.79 0.79 99 1014.5
20260901194333 67 73 3.0 7.0 0.07 0.78 0.78 99 1014.4
20260901193830 68 175 2.0 7.0 0.12 0.78 0.78 99 1014.4
20260901193328 68 113 0.0 3.0 0.17 0.76 0.76 99 1014.1
20260901192823 68 136 2.0 5.0 0.26 0.75 0.75 99 1014.0
20260901192319 68 71 2.0 3.0 0.24 0.74 0.74 99 1014.0
20260901191815 68 70 0.0 4.0 0.21 0.71 0.71 99 1013.8
20260901191310 68 187 1.0 2.0 0.31 0.69 0.69 99 1013.8
20260901190806 68 145 2.0 5.0 0.31 0.67 0.67 99 1013.8
20260901190306 68 89 2.0 6.0 0.12 0.64 0.64 99 1014.0
20260901185804 68 73 4.0 5.0 0.05 0.62 0.62 99 1013.9
20260901185305 69 103 1.0 4.0 0.07 0.61 0.61 99 1013.8
20260901184759 69 148 0.0 3.0 0.21 0.61 0.61 99 1013.8
20260901184254 69 65 2.0 7.0 0.19 0.60 0.60 99 1013.6
20260901183750 69 101 3.0 5.0 0.19 0.57 0.57 99 1013.9
20260901183249 69 144 1.0 5.0 0.50 0.57 0.57 99 1013.8
20260901182745 70 105 1.0 4.0 0.28 0.52 0.52 99 1013.9
20260901182244 70 93 0.0 2.0 0.12 0.48 0.48 99 1013.8
20260901181739 69 33 0.0 1.0 0.19 0.47 0.47 99 1013.7
20260901181234 70 166 0.0 2.0 0.09 0.45 0.45 99 1013.7
20260901180733 70 91 0.0 0.0 0.02 0.44 0.44 99 1013.7
20260901180232 69 91 0.0 0.0 0.02 0.44 0.44 99 1013.7
20260901175731 69 91 0.0 0.0 0.02 0.43 0.43 99 1013.7
20260901175226 69 27 0.0 2.0 0.02 0.43 0.43 99 1013.7
20260901174721 69 162 0.0 0.0 0.00 0.43 0.43 99 1013.9
20260901174217 69 107 0.0 2.0 0.00 0.43 0.43 99 1013.8
20260901173713 69 117 0.0 2.0 0.00 0.43 0.43 99 1013.9
20260901173208 69 87 2.0 2.0 0.00 0.43 0.43 99 1014.1
20260901172704 69 103 1.0 5.0 0.00 0.43 0.43 99 1013.9
20260901172203 70 89 2.0 2.0 0.00 0.43 0.43 99 1013.9
20260901171701 70 83 0.0 1.0 0.00 0.43 0.43 99 1013.9
20260901171155 70 37 0.0 0.0 0.00 0.43 0.43 99 1013.9
20260901170654 70 202 1.0 2.0 0.00 0.43 0.43 99 1014.0
20260901170149 70 175 0.0 1.0 0.00 0.43 0.43 99 1014.1
20260901165648 70 91 0.0 1.0 0.00 0.43 0.43 99 1014.0
20260901165143 70 109 1.0 1.0 0.00 0.43 0.43 99 1014.0
20260901164639 70 130 1.0 1.0 0.00 0.43 0.43 99 1013.9
20260901164134 70 78 2.0 2.0 0.00 0.43 0.43 99 1013.7
20260901163630 69 125 0.0 0.0 0.00 0.43 0.43 99 1013.7
20260901163128 69 324 0.0 2.0 0.00 0.43 0.43 99 1013.9
20260901162624 70 353 1.0 2.0 0.00 0.43 0.43 99 1013.8
20260901162124 69 66 0.0 1.0 0.00 0.43 0.43 99 1013.8
20260901161623 69 73 0.0 1.0 0.00 0.43 0.43 99 1014.1
20260901161122 69 317 0.0 0.0 0.00 0.43 0.43 99 1013.9
20260901160619 69 137 0.0 0.0 0.00 0.43 0.43 99 1014.4
20260901160114 69 164 2.0 3.0 0.00 0.43 0.43 99 1014.1
20260901155613 69 315 2.0 2.0 0.00 0.43 0.43 99 1013.8
20260901155109 69 298 0.0 2.0 0.00 0.43 0.43 99 1014.1
20260901154608 69 133 1.0 2.0 0.00 0.43 0.43 99 1014.2
20260901154103 69 103 1.0 2.0 0.00 0.43 0.43 99 1014.1
20260901153558 69 92 0.0 0.0 0.00 0.43 0.43 99 1014.0
20260901153057 69 231 0.0 3.0 0.00 0.43 0.43 99 1014.2
20260901152552 69 66 0.0 2.0 0.00 0.43 0.43 99 1014.5
20260901152051 70 107 2.0 3.0 0.00 0.43 0.43 99 1014.5
20260901151547 70 330 0.0 1.0 0.00 0.43 0.43 99 1014.5
20260901151047 70 204 0.0 2.0 0.00 0.43 0.43 99 1014.4
20260901150545 70 61 1.0 2.0 0.00 0.43 0.43 99 1014.5
20260901150043 70 189 0.0 2.0 0.00 0.43 0.43 99 1014.5
20260901145542 69 24 0.0 2.0 0.00 0.43 0.43 99 1014.5
20260901145036 69 125 1.0 3.0 0.00 0.43 0.43 99 1014.3
20260901144532 70 65 0.0 2.0 0.00 0.43 0.43 99 1014.5
20260901144027 69 50 0.0 1.0 0.00 0.43 0.43 99 1014.6
20260901143523 70 46 2.0 3.0 0.00 0.43 0.43 99 1014.7
20260901143019 69 48 0.0 1.0 0.00 0.43 0.43 99 1014.6
20260901142514 69 160 0.0 1.0 0.00 0.43 0.43 99 1014.6
20260901142009 69 169 0.0 2.0 0.00 0.43 0.43 99 1014.6
20260901141509 69 166 0.0 2.0 0.00 0.43 0.43 99 1014.7
20260901141004 69 214 0.0 2.0 0.00 0.43 0.43 99 1014.7
20260901140502 69 274 0.0 2.0 0.00 0.43 0.43 99 1014.5
20260901135955 69 317 0.0 1.0 0.00 0.43 0.43 99 1014.6
20260901135450 68 281 1.0 2.0 0.00 0.43 0.43 99 1014.7
20260901134946 69 175 0.0 0.0 0.00 0.43 0.43 99 1014.8
20260901134442 69 229 0.0 1.0 0.00 0.43 0.43 99 1014.8
20260901133936 68 324 0.0 1.0 0.00 0.43 0.43 99 1014.9
20260901133435 69 24 0.0 1.0 0.00 0.43 0.43 99 1015.0
20260901132934 69 44 0.0 2.0 0.00 0.43 0.43 99 1014.9
20260901132429 68 101 0.0 1.0 0.00 0.43 0.43 99 1014.8
20260901131928 68 24 0.0 2.0 0.02 0.43 0.43 99 1014.9
20260901131427 68 49 0.0 1.0 0.02 0.43 0.43 99 1014.6
20260901130923 68 283 1.0 2.0 0.00 0.42 0.42 99 1014.6
20260901130423 68 355 0.0 2.0 0.00 0.42 0.42 99 1014.9
20260901125921 68 44 0.0 2.0 0.02 0.42 0.42 99 1014.6
20260901125421 68 355 0.0 2.0 0.05 0.42 0.42 99 1014.9
20260901124915 68 61 0.0 1.0 0.00 0.42 0.42 99 1014.9
20260901124410 68 121 0.0 1.0 0.00 0.42 0.42 99 1015.1
20260901123905 68 93 0.0 1.0 0.00 0.42 0.42 99 1015.1
20260901123400 68 23 0.0 1.0 0.00 0.42 0.42 99 1015.1
20260901122858 68 355 0.0 2.0 0.02 0.42 0.42 99 1014.8
20260901122353 68 317 0.0 2.0 0.02 0.42 0.42 99 1014.8
20260901121852 68 321 0.0 2.0 0.05 0.41 0.41 99 1014.9
20260901121347 68 317 0.0 1.0 0.05 0.41 0.41 99 1015.0
20260901120842 68 273 0.0 1.0 0.02 0.41 0.41 99 1015.0
20260901120337 68 203 0.0 1.0 0.00 0.40 0.40 99 1015.0
20260901115833 68 312 0.0 2.0 0.00 0.40 0.40 99 1014.9
20260901115327 68 154 0.0 1.0 0.02 0.40 0.40 99 1015.1
20260901114826 68 58 1.0 2.0 0.05 0.40 0.40 99 1015.0
20260901114320 68 118 1.0 2.0 0.09 0.40 0.40 99 1014.9
20260901113819 68 94 0.0 1.0 0.09 0.39 0.39 99 1014.9
20260901113318 68 52 0.0 1.0 0.02 0.38 0.38 99 1014.9
20260901112813 68 125 0.0 2.0 0.00 0.37 0.37 99 1014.7
20260901112313 68 55 0.0 2.0 0.00 0.37 0.37 99 1014.8
20260901111813 68 49 1.0 2.0 0.02 0.37 0.37 99 1014.7
20260901111312 68 264 0.0 2.0 0.07 0.37 0.37 99 1014.7
20260901110811 68 320 2.0 3.0 0.64 0.37 0.37 99 1014.7
20260901110306 68 258 1.0 2.0 0.76 0.35 0.35 99 1014.6
20260901105803 68 55 1.0 3.0 0.57 0.25 0.25 99 1014.8
20260901105305 68 58 0.0 2.0 0.66 0.20 0.20 99 1014.7
20260901104759 68 18 0.0 2.0 0.54 0.14 0.14 99 1014.5
20260901104254 68 272 0.0 2.0 0.40 0.09 0.09 99 1014.6
20260901103749 68 322 1.0 2.0 0.17 0.04 0.04 99 1014.4
20260901103244 68 13 0.0 1.0 0.05 0.02 0.02 99 1014.7
20260901102739 68 333 2.0 2.0 0.00 0.02 0.02 99 1014.6
20260901102239 68 339 0.0 2.0 0.00 0.02 0.02 99 1014.5
20260901101735 68 324 1.0 3.0 0.00 0.02 0.02 99 1014.5
20260901101228 68 302 1.0 2.0 0.02 0.02 0.02 99 1014.7
20260901100722 68 189 0.0 1.0 0.05 0.02 0.02 99 1014.6
20260901100218 68 254 0.0 1.0 0.02 0.01 0.01 99 1014.6
20260901095716 68 126 1.0 2.0 0.02 0.01 0.01 99 1014.6
20260901095214 68 166 0.0 2.0 0.02 0.01 0.01 99 1014.7
20260901094713 68 73 2.0 2.0 0.00 0.00 0.00 99 1014.6
20260901094209 68 254 1.0 2.0 0.00 0.00 0.00 99 1014.7
20260901093703 68 73 0.0 2.0 0.00 0.00 0.00 99 1014.7
20260901093202 67 287 0.0 1.0 0.00 0.00 0.00 99 1014.6
20260901092658 67 102 0.0 2.0 0.00 0.00 0.00 99 1014.6
20260901092155 67 81 0.0 1.0 0.00 0.00 0.00 99 1014.6
20260901091649 67 166 0.0 1.0 0.00 0.00 0.00 99 1014.9
20260901091144 67 62 0.0 0.0 0.00 0.00 0.00 99 1014.8
20260901090639 67 295 0.0 1.0 0.00 0.00 0.00 99 1014.9
20260901090135 67 69 0.0 1.0 0.00 0.00 0.00 99 1014.9
20260901085631 67 115 0.0 1.0 0.00 0.00 0.00 99 1014.9
20260901085126 67 62 0.0 1.0 0.00 0.00 0.00 99 1015.0
20260901084622 67 23 0.0 1.0 0.00 0.00 0.00 99 1015.1
20260901084118 67 27 0.0 1.0 0.00 0.00 0.00 99 1015.1
20260901083617 67 342 0.0 3.0 0.00 0.00 0.00 99 1015.3
20260901083115 67 138 0.0 2.0 0.00 0.00 0.00 99 1015.2
20260901082610 67 194 0.0 2.0 0.00 0.00 0.00 99 1015.2
20260901082106 67 9 0.0 2.0 0.00 0.00 0.00 99 1015.3
20260901081602 67 118 0.0 1.0 0.00 0.00 0.00 99 1015.3
20260901081101 67 44 0.0 1.0 0.00 0.00 0.00 99 1015.2
20260901080556 67 119 0.0 1.0 0.00 0.00 0.00 99 1015.5
20260901080055 67 137 0.0 1.0 0.00 0.00 0.00 99 1015.3
20260901075551 67 76 0.0 1.0 0.00 0.00 0.00 99 1015.3
20260901075050 67 189 0.0 1.0 0.00 0.00 0.00 99 1015.4
20260901074549 67 62 0.0 1.0 0.00 0.00 0.00 99 1015.4
20260901074045 67 73 0.0 1.0 0.00 0.00 0.00 99 1015.6
20260901073542 67 52 0.0 1.0 0.00 0.00 0.00 99 1015.7
20260901073037 67 64 0.0 2.0 0.00 0.00 0.00 99 1015.5
20260901072536 67 247 0.0 1.0 0.00 0.00 0.00 99 1015.5
20260901072032 67 308 0.0 2.0 0.02 0.00 0.00 99 1015.4
20260901071532 67 217 0.0 2.0 0.02 0.00 0.00 99 1015.4
20260901071030 67 355 0.0 1.0 0.00 0.00 0.00 99 1015.8
20260901070526 67 229 0.0 1.0 0.00 0.00 0.00 99 1015.8
20260901070021 67 125 0.0 1.0 0.00 0.00 0.00 99 1015.7
20260901065515 67 49 0.0 0.0 0.00 0.00 0.00 99 1015.9
20260901065010 67 83 0.0 1.0 0.00 0.00 0.00 99 1015.9
20260901064507 67 125 0.0 0.0 0.00 0.00 0.00 99 1016.0
20260901064003 67 125 0.0 0.0 0.00 0.00 0.00 99 1015.8
20260901063500 67 150 0.0 0.0 0.00 0.00 0.00 99 1015.8
20260901062955 67 150 0.0 0.0 0.00 0.00 0.00 99 1015.8
20260901062451 67 125 0.0 0.0 0.00 0.00 0.00 99 1015.9
20260901061947 67 125 0.0 2.0 0.00 0.00 0.00 99 1015.9
20260901061442 67 123 0.0 1.0 0.00 0.00 0.00 99 1016.1
20260901060937 67 176 0.0 0.0 0.00 0.00 0.00 99 1016.2
20260901060432 67 176 0.0 0.0 0.00 0.00 0.00 99 1016.0
20260901055931 67 176 0.0 1.0 0.00 0.00 0.00 99 1016.1
20260901055429 67 166 0.0 0.0 0.00 0.00 0.00 99 1016.1
20260901054924 67 166 0.0 0.0 0.00 0.00 0.00 99 1016.2
20260901054422 67 166 0.0 0.0 0.00 0.00 0.00 99 1015.9
20260901053917 67 204 0.0 1.0 0.00 0.00 0.00 99 1016.3
20260901053413 67 49 0.0 0.0 0.00 0.00 0.00 99 1016.3
20260901052908 67 49 0.0 2.0 0.00 0.00 0.00 99 1016.5
20260901052403 67 137 0.0 1.0 0.00 0.00 0.00 99 1016.3
20260901051856 67 150 0.0 2.0 0.00 0.00 0.00 99 1016.4
20260901051352 67 115 0.0 2.0 0.00 0.00 0.00 99 1016.4
20260901050846 67 144 0.0 1.0 0.00 0.00 0.00 99 1016.3
20260901050342 67 88 0.0 2.0 0.00 0.00 0.00 99 1016.2
20260901045837 67 61 0.0 1.0 0.00 0.00 0.00 99 1016.4
20260901045336 67 213 0.0 0.0 0.00 0.00 0.00 99 1016.4
20260901044832 67 213 0.0 1.0 0.00 0.00 0.00 98 1016.3
20260901044328 67 166 0.0 1.0 0.00 0.00 0.00 98 1016.6
20260901043824 67 162 0.0 1.0 0.00 0.00 0.00 98 1016.5
20260901043320 67 189 0.0 2.0 0.00 0.00 0.00 98 1016.5
20260901042818 67 217 0.0 0.0 0.00 0.00 0.00 97 1016.5
20260901042313 67 217 0.0 1.0 0.00 0.00 0.00 97 1016.6
20260901041809 67 129 0.0 1.0 0.00 0.00 0.00 97 1016.6
20260901041304 67 155 0.0 0.0 0.00 0.00 0.00 97 1016.6
20260901040759 68 155 0.0 0.0 0.00 0.00 0.00 97 1016.6
20260901040258 68 155 0.0 1.0 0.00 0.00 0.00 97 1016.6